Location: Dresden
(51.0483°N, 13.7137°E)
Time: 21:19:11
(UTC+01:00)

N. Korean satellite - Visible Passes

Search period start: 24 November 2017 00:00
Search period end: 04 December 2017 00:00
Orbit: 460 x 514 km, 97.2° (Epoch: 24 November)

Date Brightness Start Highest point End Pass type
(mag) Time Alt. Az. Time Alt. Az. Time Alt. Az.
24 Nov 6.4 17:45:02 10° SSE 17:48:34 70° ENE 17:52:12 10° N visible
24 Nov 10.1 19:21:28 10° WSW 19:22:35 11° W 19:23:41 10° WNW visible
25 Nov 7.9 06:40:38 10° NNE 06:44:17 47° E 06:47:55 10° S visible
25 Nov 7.0 17:21:49 10° SE 17:25:08 38° ENE 17:28:33 10° N visible
25 Nov 9.3 18:56:11 10° SW 18:58:49 19° W 19:01:32 10° NW visible
26 Nov 9.1 06:17:26 10° NE 06:20:40 27° E 06:23:54 10° SSE visible
26 Nov 7.7 16:58:56 10° ESE 17:01:47 23° ENE 17:04:42 10° NNE visible
26 Nov 8.3 18:31:53 10° SSW 18:35:09 33° W 18:38:31 10° NNW visible
27 Nov 9.9 05:54:36 10° NE 05:56:58 16° E 05:59:20 10° SE visible
27 Nov 7.0 18:08:01 10° S 18:11:34 63° W 18:15:12 10° NNW visible
28 Nov 6.4 17:44:29 10° SSE 17:48:03 70° ENE 17:51:43 10° N visible
28 Nov 10.1 19:20:49 10° WSW 19:22:03 11° W 19:23:17 10° WNW visible
29 Nov 7.9 06:40:07 10° NNE 06:43:47 46° E 06:47:25 10° S visible
29 Nov 7.0 17:21:15 10° SE 17:24:37 38° ENE 17:28:03 10° N visible
29 Nov 9.3 18:55:35 10° SW 18:58:17 20° W 19:01:03 10° NW visible
30 Nov 9.1 06:16:54 10° NE 06:20:09 26° E 06:23:22 10° SSE visible
30 Nov 7.7 16:58:21 10° ESE 17:01:14 23° ENE 17:04:11 10° NNE visible
30 Nov 8.3 18:31:17 10° SSW 18:34:36 34° W 18:38:00 10° NNW visible
01 Dec 9.9 05:54:04 10° NE 05:56:25 16° E 05:58:47 10° SE visible
01 Dec 7.0 18:07:25 10° S 18:10:59 63° WSW 18:14:40 10° NNW visible
02 Dec 6.8 07:02:58 10° NNE 07:06:46 85° E 07:10:32 10° SSW visible
02 Dec 6.5 17:43:51 10° SSE 17:47:27 70° ENE 17:51:10 10° N visible
02 Dec 10.0 19:20:06 10° WSW 19:21:28 12° W 19:22:50 10° WNW visible
03 Dec 7.9 06:39:31 10° NNE 06:43:12 46° E 06:46:49 10° S visible
03 Dec 7.1 17:20:36 10° SE 17:24:00 38° ENE 17:27:29 10° N visible
03 Dec 9.3 18:54:55 10° SW 18:57:40 20° W 19:00:29 10° NW visible
